Вернуться в каталог

STARLINK-37024

АктивенСвязьSSO
NORAD 68106·PAYLOAD·🇺🇸 United States

Запущен Mar 8, 2026 с Vandenberg Space Force Base

Loading…

Ближайшие Пролёты (ближайшие 24 часа)

TLE

СвежийSource: CelesTrak SupGP

Эпоха: Sep 15, 2026, 04:19 UTC

1 68106C 26044F   26258.18034722  .00043489  00000+0  13503-2 0  2586
2 68106  97.2851 217.1652 0001789  91.2459 131.6580 15.33408281    14

Отслеживайте STARLINK-37024 в реальном времени с AllMySat

Download on the App Store